sat.trackr.live / text

‹ back to catalog

STARLINK-11318 [DTC]

NORAD 61252 · 2024-175K

PAYLOAD ACTIVE UNKNOWN

§ Identity

Operator
Country
US
Launch date
2024-09-25
Launch site
AFWTR
Launch vehicle
Mass (kg)
RCS (m²)

Purposes: comms

External: N2YO · Heavens-Above · Gunter

§ Orbital elements

Epoch: 2026-05-25T02:19:00.914304Z

Period
91.74 min
Inclination
53.1584°
Eccentricity
0.0000747
Mean motion
15.69708125 rev/d
Perigee alt
359.2 km
Apogee alt
360.2 km
Semi-major
6,737.9 km
B*
7.2844e-6
RAAN
39.8536°
Arg perigee
79.1542°
Mean anomaly
280.9559°
Rev number
9,653

§ Raw data

STARLINK-11318 [DTC]1 61252U 24175K   26145.09653836  .00000294  00000+0  72844-5 0  99972 61252  53.1584  39.8536 0000747  79.1542 280.9559 15.69708125 96539

JSON: /api/v1/satellites/61252 · /tle

For live sub-satellite position, see the globe view (requires WebGL).

§ Visibility from observer

Set your observer location to see the next 7 days of passes ≥ 10°. The values pass through the URL so the page stays shareable.

No JS? Fill the form by hand. The geolocation button needs JavaScript.